Wind_Gust
12 13 14 15 17 22 27 31 30 33 32 27 23 22 22 23 22 21 21 23 24 22 21 22 23 22 19 20 16 17 15 15 15 15 13 13 13 12 12 12 13 14 16 17 16 16 16 16 17 17 17 17 16 15 15 13 14 15 16 17 20 22
12 12 12 13 13 14 19 20 16 21 24 26 24 19 21 21 18 21 17 23 21 20 21 21 21 16 21 20 19 17 16 15 14 14 13 13 13 12 13 12 13 14 15 17 18 21 18 15 16 16 16 16 18 15 15 15 14 16 17 21 20 18
13 12 12 10 10 10 16 19 14 14 20 19 22 26 21 23 23 23 23 24 21 20 21 20 20 21 19 16 20 16 17 16 15 14 13 13 13 13 12 12 12 13 14 18 22 16 17 19 19 17 15 18 14 14 15 14 14 16 20 21 21 14
16 12 9 10 8 11 14 17 17 16 13 16 22 22 21 21 22 24 25 23 22 21 21 20 16 20 17 23 22 17 17 16 15 14 15 12 11 12 12 11 10 12 12 14 15 16 17 17 18 16 14 14 14 16 15 14 15 17 19 20 23 14
17 14 10 8 7 10 13 16 18 20 18 20 19 21 23 23 22 21 24 23 24 21 23 21 21 22 22 21 21 21 22 21 20 18 14 16 17 20 17 20 19 19 16 17 15 14 15 15 14 15 14 14 15 15 15 14 17 18 20 22 21 12
15 13 11 9 8 9 16 17 18 20 17 17 18 19 20 23 23 25 22 24 22 22 21 22 22 21 21 22 22 23 23 22 21 19 19 17 17 17 17 18 18 19 14 12 14 14 14 14 15 14 14 14 15 15 15 15 17 17 20 22 21 13
15 15 12 10 9 10 12 15 18 18 20 18 19 19 20 22 23 23 24 22 24 24 23 21 23 23 22 23 23 23 23 21 21 20 19 17 15 16 14 14 13 12 12 12 14 14 15 15 14 16 16 16 15 15 15 15 17 17 19 22 18 14
15 14 13 10 9 11 12 13 15 19 20 17 23 22 22 23 22 24 21 22 23 24 23 24 24 25 23 23 23 22 22 22 21 20 19 17 17 16 14 13 10 11 12 13 16 15 15 15 14 15 16 15 16 15 15 15 16 18 18 21 21 17
16 14 14 13 10 11 13 15 15 17 20 18 19 20 19 20 23 22 24 23 21 24 23 24 25 25 24 23 22 22 22 21 20 20 18 17 17 14 13 11 10 10 11 12 14 15 16 16 14 14 15 16 16 16 15 15 15 18 18 18 20 20
19 19 16 15 12 12 13 13 14 16 18 19 23 21 19 22 24 24 28 27 27 27 24 25 24 25 26 24 23 20 19 19 18 17 18 17 15 15 13 11 11 12 14 14 15 16 16 16 16 15 15 16 16 16 16 16 15 17 17 19 20 23
19 17 16 16 14 14 14 14 13 15 15 18 18 24 22 22 22 22 25 25 25 27 27 26 24 24 24 24 23 22 21 16 15 15 16 18 14 14 11 10 8 8 12 15 16 17 17 17 15 16 15 16 16 16 15 15 15 17 17 18 20 20
20 19 18 18 15 14 14 13 13 15 16 20 26 20 21 21 23 23 21 25 26 26 28 26 23 24 23 24 25 25 22 18 16 14 16 16 16 14 14 11 9 10 11 14 16 16 15 16 15 16 16 17 16 16 15 15 16 15 17 18 18 19
21 19 19 18 17 13 12 13 12 14 16 18 21 25 25 24 23 24 26 29 28 26 26 25 24 23 23 26 26 25 23 19 17 16 13 13 15 14 12 12 10 12 13 16 16 17 17 15 15 17 16 16 16 16 15 15 15 15 16 15 17 17
22 22 20 18 17 17 14 13 13 13 14 17 20 22 24 23 24 22 22 27 24 24 24 25 25 23 22 25 25 26 24 23 22 15 13 13 16 15 14 13 12 13 13 17 18 17 17 17 16 16 15 16 15 15 16 16 14 15 14 15 15 15
22 21 21 19 19 18 14 12 12 13 14 16 16 18 17 22 21 24 24 21 23 19 23 24 25 24 23 25 26 24 24 24 23 17 18 17 16 15 14 13 12 15 15 16 18 18 18 16 17 17 15 15 16 16 14 15 14 14 15 14 14 15
21 22 21 20 18 17 16 12 11 10 13 14 16 16 15 19 24 23 25 22 24 23 20 24 24 25 24 24 24 26 25 23 20 22 20 16 16 17 15 13 12 13 16 18 19 18 17 16 15 17 14 14 14 15 14 14 14 13 14 14 14 14
21 22 20 20 18 17 16 16 14 12 13 16 18 15 15 17 22 24 24 25 23 22 21 25 24 25 24 24 24 26 25 22 20 21 18 17 18 17 15 15 13 11 12 18 22 19 18 16 16 16 14 13 14 14 14 14 13 13 14 13 13 14
21 21 21 20 19 18 15 14 15 15 13 17 15 15 13 15 22 24 25 24 21 24 21 23 25 23 24 23 24 25 24 22 23 20 17 18 18 17 16 15 15 13 13 15 22 18 17 17 17 17 14 14 13 13 13 13 12 12 12 13 13 13
21 21 21 20 18 18 16 13 13 13 13 12 14 15 14 16 20 23 24 26 24 22 25 23 25 24 23 23 23 22 24 19 20 18 18 21 19 18 17 17 16 15 13 14 18 18 18 18 17 16 15 14 14 13 12 12 12 12 12 12 13 14
20 21 20 20 20 20 20 18 18 15 14 12 14 17 19 19 18 23 23 24 24 20 21 21 24 22 22 23 22 23 21 22 20 19 19 22 22 20 19 18 17 18 17 17 17 20 18 20 17 15 14 13 11 12 11 11 11 11 11 11 12 13
21 20 21 23 22 22 22 23 21 19 17 15 14 16 17 18 18 19 23 22 23 23 21 19 20 21 20 21 23 23 21 20 23 21 18 18 20 20 19 18 17 16 19 19 19 19 18 20 21 17 14 13 12 11 11 12 11 11 12 12 12 13
21 21 21 21 22 20 20 22 22 19 16 15 15 17 19 18 17 20 23 22 24 23 20 20 18 18 18 21 21 22 22 23 23 20 19 19 20 18 19 18 18 18 20 20 19 20 22 21 20 21 20 16 14 13 12 12 13 13 12 12 12 12
21 22 21 21 22 23 21 21 21 18 14 14 16 16 16 16 17 16 18 19 22 20 23 20 17 16 17 17 21 22 21 21 21 21 20 21 22 21 20 20 20 20 21 19 18 19 19 19 21 19 17 18 18 18 13 13 13 15 15 12 12 13
21 21 22 22 22 20 20 21 19 16 13 12 13 13 14 14 16 18 17 16 18 17 20 20 17 15 15 15 20 21 21 20 21 22 25 23 22 25 23 22 22 20 19 21 23 20 19 16 17 23 21 18 17 18 16 17 18 16 15 14 14 15
21 21 22 22 22 21 19 20 20 18 11 10 9 10 12 14 13 18 18 12 14 18 16 17 18 17 14 17 19 21 21 21 22 23 21 23 22 22 24 24 23 21 22 21 22 21 20 18 17 18 20 20 16 17 17 18 18 15 16 16 16 15
20 20 22 21 22 21 20 20 22 20 19 15 10 10 12 14 14 13 16 16 11 14 15 18 17 16 12 11 15 19 20 23 22 22 23 23 23 21 22 24 24 22 23 21 20 21 22 19 18 17 17 17 16 16 14 18 18 16 15 13 14 16
20 20 21 21 21 21 19 19 18 18 17 16 16 10 9 11 13 13 12 13 13 12 14 15 17 14 13 12 13 16 17 19 20 24 22 21 23 22 23 24 23 22 23 22 20 22 20 20 18 18 18 17 12 14 17 18 15 17 16 16 15 16
21 21 20 21 21 21 20 18 17 17 16 15 15 17 13 9 12 13 14 16 14 13 13 13 15 16 14 17 13 14 18 19 20 20 22 22 21 22 22 21 20 21 22 21 21 22 20 20 20 20 18 17 15 12 14 14 13 15 13 18 17 16
21 19 20 20 20 20 20 19 18 17 18 14 13 13 13 9 10 11 14 11 14 14 19 15 14 14 16 16 17 17 18 19 23 24 23 22 22 22 19 18 18 18 19 19 19 19 20 20 21 21 18 18 17 17 15 14 13 14 19 17 21 18
21 21 20 19 20 19 18 19 18 16 17 17 17 15 12 12 10 11 12 14 12 13 15 14 10 10 15 14 17 19 19 20 21 25 23 18 20 20 19 18 18 17 17 17 17 19 19 20 22 21 21 20 21 19 16 16 15 16 15 15 15 22
21 22 20 19 19 19 18 17 17 17 16 16 16 14 15 13 12 11 13 15 14 16 17 15 13 11 11 12 16 19 18 18 19 19 22 18 19 18 18 17 17 15 16 18 18 17 17 18 20 20 19 19 19 18 18 18 16 17 16 15 16 15
21 21 21 20 18 19 18 17 16 16 16 15 15 15 13 14 14 14 12 14 12 14 18 19 14 12 13 12 14 15 16 20 21 19 23 18 17 20 21 18 17 17 16 16 16 17 17 17 17 18 18 19 18 17 17 18 17 16 17 17 16 15
22 21 21 20 18 18 17 17 16 16 15 15 13 13 13 11 13 12 13 12 13 12 13 14 16 14 10 10 11 14 16 20 18 17 21 18 15 15 16 17 17 18 17 17 17 17 18 17 18 19 19 18 19 19 19 17 17 17 15 16 16 18
23 21 20 19 18 18 16 16 15 15 15 14 14 12 11 12 11 11 12 11 12 12 13 12 16 16 12 12 12 10 12 13 15 17 20 19 14 16 15 17 19 19 18 18 17 17 18 17 18 18 17 18 18 20 18 17 16 17 18 17 18 18
22 22 20 19 18 18 17 16 15 15 14 13 13 12 11 11 11 10 11 10 11 12 13 12 15 12 10 9 9 10 10 12 14 15 16 17 14 17 17 17 17 19 21 19 18 19 18 18 19 19 18 18 18 19 19 20 19 19 19 19 20 18
21 21 20 19 18 17 17 16 15 14 14 13 13 12 11 11 10 11 10 10 11 10 10 9 9 9 9 9 9 13 13 13 12 12 14 17 16 16 16 16 18 18 19 19 21 20 19 19 19 19 19 19 20 20 19 20 21 20 20 20 20 19
21 19 19 18 18 16 16 16 15 15 14 13 13 12 12 12 11 10 10 10 10 10 9 9 9 8 13 10 11 13 14 14 13 14 13 16 16 16 15 18 20 20 20 20 20 21 21 22 21 20 20 20 21 21 20 19 20 20 20 19 21 21
Wind_Speed
3 3 2 1 2 3 5 3 7 17 25 22 18 17 13 11 10 11 11 11 11 10 10 9 11 10 12 11 11 11 11 11 10 10 10 10 9 10 10 10 10 11 12 13 13 13 12 12 11 10 10 8 9 4 5 4 5 6 6 7 9 9
3 3 1 1 1 2 3 5 5 3 9 15 15 13 12 10 10 10 13 12 10 9 9 9 10 12 11 11 11 12 11 10 9 9 9 9 8 9 10 9 10 11 12 13 15 9 10 11 11 11 10 10 7 4 4 5 5 6 7 9 9 9
5 3 1 1 1 4 3 1 4 5 6 9 12 12 9 13 12 11 11 11 10 9 10 10 9 10 8 11 10 11 11 10 9 9 9 8 8 9 10 10 10 11 11 14 10 6 7 7 8 10 9 7 3 4 5 5 5 6 8 9 9 10
5 5 2 0 1 3 4 3 1 6 5 6 8 10 12 12 11 11 9 9 9 10 10 9 10 11 11 9 9 10 11 11 9 9 9 8 8 8 10 9 9 9 10 7 5 6 6 6 6 6 5 3 5 5 4 5 6 7 8 10 10 11
5 4 3 2 2 1 4 5 4 4 7 7 8 9 10 11 11 8 3 10 10 10 10 9 10 9 9 9 9 8 8 9 8 9 11 7 7 8 8 8 8 9 6 8 4 5 5 6 5 5 4 4 5 4 4 5 7 7 8 9 10 9
3 3 3 2 3 2 2 6 8 6 5 7 8 7 9 10 11 13 10 9 11 10 10 10 10 10 8 8 9 9 10 9 10 9 9 7 7 7 7 7 8 8 5 4 4 4 4 5 5 5 4 4 5 4 4 6 7 7 8 9 10 10
5 3 3 2 2 3 4 4 6 6 6 8 8 8 9 9 11 11 12 9 9 10 10 10 11 10 10 9 9 10 10 9 9 8 8 7 6 7 6 5 5 4 3 3 5 5 4 4 4 5 5 5 6 5 4 6 6 7 8 9 10 11
6 5 3 2 2 2 4 6 6 8 9 7 7 8 9 9 9 10 10 8 7 11 10 10 11 11 10 7 8 10 8 9 8 8 8 6 7 7 5 5 4 4 3 4 5 5 5 5 5 5 5 5 5 5 5 5 7 8 8 9 9 11
9 7 5 3 1 2 3 5 7 7 9 8 8 7 6 6 9 9 10 9 8 7 8 10 11 11 10 8 6 8 8 9 8 8 7 7 7 6 5 4 3 3 4 3 4 5 5 6 4 5 5 6 6 6 6 6 6 8 8 8 9 10
11 9 7 5 2 2 3 6 6 7 8 7 6 6 7 6 8 10 12 13 11 12 8 9 11 10 10 11 11 9 8 8 8 7 7 7 6 6 5 4 4 4 5 5 5 5 5 6 5 5 5 6 5 6 5 6 6 7 7 8 9 10
10 9 7 6 4 2 3 5 6 7 6 7 6 6 7 8 10 11 9 10 10 7 8 13 9 10 9 7 7 8 6 6 6 6 7 7 6 6 4 3 2 2 4 6 5 6 5 6 6 6 6 6 6 6 5 5 6 7 7 7 8 9
11 10 9 8 5 5 3 3 6 7 6 8 6 3 4 7 9 10 8 6 7 9 11 13 8 9 10 10 8 8 9 8 6 6 7 7 7 5 5 3 2 2 4 6 6 6 5 5 6 6 6 7 6 6 5 5 6 6 7 8 7 8
12 11 10 10 8 6 5 4 4 6 7 7 8 6 9 8 8 9 8 8 8 11 10 11 7 9 10 10 9 11 11 9 7 7 6 7 7 5 4 4 3 4 5 6 7 6 5 5 5 5 5 6 6 6 5 5 5 6 7 6 7 7
11 12 11 9 9 8 6 4 3 4 5 7 8 8 10 8 6 7 9 11 10 6 7 8 8 8 8 10 11 11 10 9 9 8 6 5 6 6 5 5 5 5 6 7 8 7 6 6 6 5 5 5 6 5 5 5 4 5 5 6 6 7
11 11 11 10 10 9 7 4 4 3 4 5 6 6 5 5 8 10 9 9 10 9 11 12 9 8 8 8 11 10 8 10 9 8 8 7 6 6 5 5 4 6 6 7 7 8 6 5 6 7 5 4 6 5 4 5 5 5 5 6 5 6
12 12 11 11 9 9 8 5 3 5 5 6 6 5 5 6 6 8 8 7 10 13 10 10 10 9 8 10 10 10 10 9 9 9 8 7 7 7 6 5 4 4 7 7 8 4 6 6 5 7 5 4 5 4 4 5 5 4 5 5 5 6
13 13 12 11 10 9 8 8 7 5 5 7 6 5 6 6 8 10 11 9 9 11 10 10 10 10 8 10 8 10 8 8 10 9 8 8 7 7 6 5 5 4 4 8 10 8 7 6 6 6 5 4 4 4 4 4 4 4 5 5 5 5
11 12 11 10 10 9 7 7 7 6 6 5 7 5 5 7 7 10 12 11 10 8 10 12 11 10 9 8 8 9 10 11 11 9 8 8 8 7 7 6 6 5 5 6 10 6 7 6 7 6 6 5 4 4 4 4 4 4 4 4 5 4
11 12 11 11 10 9 8 6 5 5 6 4 5 6 5 3 4 10 12 12 12 10 11 12 12 11 9 8 8 6 10 8 9 8 8 9 8 8 7 7 7 6 4 4 9 7 6 6 7 6 6 6 5 4 3 4 4 3 4 4 4 4
10 11 11 10 9 9 9 7 8 7 6 5 3 6 5 4 6 7 8 10 12 10 10 11 13 11 9 8 8 9 10 10 8 8 9 10 9 8 9 9 9 8 7 7 8 8 8 7 7 6 6 5 4 5 5 4 4 4 4 4 4 4
10 10 10 10 10 9 9 10 10 8 7 7 6 5 5 7 9 7 11 10 13 12 12 11 10 9 9 9 8 8 8 8 8 9 8 9 10 10 9 8 7 7 8 8 7 9 9 9 8 7 5 5 4 4 5 5 5 4 4 4 4 4
10 10 10 10 10 9 9 9 10 9 7 6 6 4 6 7 7 6 8 10 10 12 10 11 8 8 8 8 9 8 7 11 9 7 6 8 10 9 9 9 7 6 9 9 8 10 10 10 8 8 8 5 4 5 5 4 5 5 5 4 4 4
10 11 11 11 10 10 10 10 10 8 6 5 4 5 3 3 5 5 9 9 11 10 11 10 9 8 7 7 7 8 7 7 8 9 7 9 10 9 9 10 10 9 8 7 7 8 10 8 8 8 7 7 6 7 5 4 5 6 6 5 5 5
10 10 11 11 11 11 11 12 10 8 6 4 4 3 5 4 4 4 6 5 3 8 12 11 9 8 7 7 7 8 7 6 7 9 11 10 10 13 11 10 11 10 9 8 8 8 8 7 6 9 6 5 5 7 6 7 7 6 7 7 6 6
10 10 10 12 12 11 10 10 10 9 6 4 3 2 2 3 2 7 5 5 3 2 3 8 9 9 7 7 7 7 7 7 6 7 8 9 9 11 12 11 12 10 11 9 9 8 8 8 7 7 6 2 5 6 5 7 8 6 7 7 7 7
9 9 10 12 12 11 9 9 10 9 9 7 4 4 1 2 4 1 7 8 5 4 2 7 8 8 6 5 4 5 4 4 7 9 9 9 8 10 12 12 12 10 12 11 8 9 8 6 6 7 5 8 2 1 4 7 8 6 6 5 6 7
10 9 10 11 12 10 10 8 9 9 8 7 8 3 2 1 2 1 2 7 7 6 2 3 5 6 4 5 4 2 3 7 7 9 9 8 10 11 10 12 11 11 11 10 9 7 8 8 6 6 4 7 4 4 7 6 4 7 6 4 6 7
10 10 10 10 11 10 9 9 9 9 7 7 7 8 6 1 2 3 3 5 6 7 5 2 3 3 3 4 3 4 4 3 4 10 7 7 8 9 9 10 10 10 10 9 10 9 8 7 7 5 8 7 5 5 7 9 5 5 4 6 4 5
11 10 9 11 10 10 9 9 8 7 8 6 6 6 6 2 2 2 3 1 4 6 8 6 2 3 3 3 2 3 2 2 3 8 7 9 9 9 10 9 7 7 8 8 8 7 7 7 7 6 6 5 5 6 6 5 5 6 7 6 7 5
12 11 10 10 10 10 10 8 8 8 9 8 7 6 5 5 1 4 3 4 3 3 6 8 6 5 4 3 2 2 2 2 3 6 11 8 8 8 7 6 6 6 7 7 6 8 9 7 6 6 9 7 8 9 6 6 6 6 6 7 3 10
12 11 11 10 10 10 9 9 7 9 9 8 8 7 7 6 6 3 4 5 4 3 4 6 6 4 4 4 4 4 3 2 3 3 12 7 6 5 4 5 5 4 6 7 6 8 7 10 9 10 10 9 9 7 6 6 6 6 6 6 5 7
12 12 11 11 10 9 8 8 8 7 8 7 8 6 6 7 7 8 3 3 1 1 2 3 6 5 4 4 4 4 4 5 2 2 9 8 7 9 8 6 5 5 4 5 5 6 7 8 8 7 8 7 7 6 6 6 6 5 5 5 6 4
13 12 11 11 10 9 8 8 7 7 7 7 6 6 6 5 7 6 6 3 2 3 3 1 5 5 3 3 3 3 2 3 3 4 8 10 5 5 6 6 6 6 5 6 5 5 6 7 8 8 7 7 6 7 7 6 5 6 4 5 5 5
13 12 10 10 10 9 7 8 7 7 6 6 6 5 4 5 5 5 5 4 2 2 2 0 3 5 5 5 3 2 1 2 3 4 9 11 4 5 5 5 6 6 7 6 5 6 6 7 7 8 7 6 7 7 7 6 5 5 6 6 6 6
12 11 11 10 9 9 7 7 7 7 6 5 5 5 4 3 4 4 4 4 2 2 2 2 1 2 3 3 4 2 2 2 5 8 8 9 4 4 5 4 4 5 5 5 6 6 6 7 7 8 8 7 6 6 6 7 6 7 6 7 7 6
12 11 10 10 9 9 8 7 7 7 7 6 5 4 4 3 3 2 2 2 3 3 1 1 1 1 3 3 2 3 3 4 5 4 5 8 7 5 5 5 5 5 6 5 6 8 7 7 8 8 9 8 7 7 7 7 8 7 7 7 6 6
11 11 11 10 9 8 8 8 8 7 6 6 6 5 5 5 4 3 2 1 1 3 2 1 1 2 3 3 2 0 3 4 4 4 5 8 7 6 5 5 5 6 6 6 7 8 8 8 8 8 6 7 7 7 7 7 8 8 7 7 7 7
Wind_Direction
65 353 330 252 217 239 312 257 212 162 152 156 166 172 182 200 212 196 186 178 176 185 169 162 173 168 158 159 157 146 148 145 143 138 136 138 141 136 135 144 145 141 139 137 133 131 130 131 131 134 136 156 186 199 86 78 85 78 85 93 80 84
47 6 36 352 27 228 258 203 168 282 164 157 161 166 175 187 209 200 199 182 188 184 178 173 178 165 168 153 153 151 148 147 142 139 139 144 147 141 138 144 151 144 142 140 145 146 137 134 136 137 158 181 202 84 96 84 70 84 82 90 93 92
46 24 350 103 154 172 183 210 145 162 193 166 163 171 186 182 191 204 198 194 187 189 184 176 174 174 166 159 147 154 150 146 146 141 145 148 152 140 136 144 149 155 148 161 181 143 148 148 142 152 177 202 99 95 88 84 86 78 81 82 87 108
37 37 16 47 154 174 155 116 188 181 187 188 176 176 189 190 181 198 212 207 195 182 187 176 162 158 149 158 148 159 153 146 145 151 147 158 149 138 132 138 149 152 177 182 196 144 144 139 143 163 176 142 105 100 104 96 82 87 88 84 87 99
31 42 37 338 283 215 181 170 190 217 201 193 187 183 187 197 184 166 177 265 206 189 180 178 166 164 172 159 160 169 167 169 170 167 180 176 181 152 174 164 161 183 188 189 147 143 134 128 145 152 138 115 109 109 104 96 92 91 91 97 97 99
9 46 39 31 306 290 219 211 197 201 215 212 205 194 189 191 195 170 184 212 244 191 183 178 170 169 171 167 169 179 181 176 174 171 188 180 180 168 189 169 175 187 189 156 142 131 129 136 140 139 132 122 115 113 99 94 96 97 99 106 110 104
359 349 91 67 17 302 272 243 230 211 212 208 207 210 202 197 193 186 176 195 255 211 190 179 174 172 178 177 180 182 182 176 174 172 180 182 173 174 179 162 169 178 165 171 155 142 146 144 135 130 133 126 110 110 105 101 98 101 102 104 111 108
358 352 9 74 153 244 270 271 241 229 221 217 213 215 215 204 205 197 175 176 179 247 193 185 178 176 176 175 191 185 184 173 177 173 176 181 177 171 180 165 167 172 177 181 166 159 153 141 143 133 122 121 119 112 105 96 104 105 106 111 117 113
353 355 356 343 207 196 226 244 254 238 227 212 222 227 228 235 210 201 185 174 175 251 249 190 183 181 177 171 203 193 182 177 176 172 176 182 181 167 166 168 158 200 178 181 176 162 159 139 142 136 134 130 115 112 110 105 105 111 110 114 114 115
358 352 346 333 340 222 226 232 233 242 236 222 224 231 217 222 219 207 194 184 191 181 230 232 185 185 180 178 189 191 183 176 179 169 182 182 177 171 171 155 181 218 163 174 172 152 163 141 141 140 134 118 125 111 113 115 111 109 116 114 115 120
0 355 341 331 327 273 213 242 240 235 226 222 220 232 242 224 213 210 202 186 176 177 177 235 196 189 183 176 183 178 188 167 177 174 188 179 178 174 172 150 208 203 147 155 144 149 173 147 138 142 129 127 120 127 114 114 112 111 116 119 121 126
360 359 350 339 345 314 267 223 229 237 230 230 212 249 303 277 228 213 211 206 185 172 213 218 202 187 188 174 186 195 179 182 181 177 191 180 177 176 173 157 146 169 121 130 139 155 152 145 138 125 143 123 118 113 119 126 119 114 113 117 122 126
358 2 358 349 339 327 300 261 243 238 227 222 230 203 223 236 251 228 205 206 214 195 207 222 197 198 192 175 185 190 185 183 181 180 186 186 178 176 169 146 161 128 138 127 136 143 151 124 128 130 125 121 118 114 122 125 113 121 116 117 125 126
357 357 360 355 341 334 325 296 261 263 258 241 230 215 219 211 235 257 224 211 214 206 211 231 200 199 202 185 184 195 191 183 177 177 171 178 181 191 174 165 149 151 134 140 145 141 137 145 131 134 121 115 110 123 133 120 119 117 124 120 116 124
356 354 355 356 349 335 335 314 280 251 230 228 247 240 215 197 207 220 230 216 211 204 201 213 215 201 203 197 186 196 191 183 174 175 173 180 192 187 175 174 171 153 150 133 139 145 142 134 145 122 115 122 123 130 125 121 133 138 129 122 130 121
356 354 353 352 350 335 332 322 283 256 240 230 244 237 210 221 232 214 220 214 217 203 205 207 213 206 202 200 199 183 190 191 181 176 175 171 198 186 177 179 177 162 147 156 109 122 138 143 128 114 122 123 120 134 129 128 129 138 133 140 126 130
357 353 348 349 343 338 336 326 316 298 267 237 223 219 207 215 214 206 199 194 207 214 204 205 206 209 208 204 200 190 188 192 177 180 171 172 189 189 170 178 180 182 167 151 143 149 138 143 124 125 126 129 137 143 130 128 135 136 128 133 129 130
357 352 347 343 341 332 337 326 312 311 298 264 249 216 205 214 228 213 191 195 185 214 214 205 205 206 208 206 193 198 200 175 192 176 172 177 185 186 180 180 177 174 178 174 123 171 143 147 134 130 141 144 143 137 132 137 127 135 139 134 137 139
359 355 349 343 340 332 327 331 300 297 296 267 242 215 200 213 282 231 191 185 176 205 212 207 200 202 202 200 197 187 213 180 191 179 174 178 182 187 179 184 182 161 158 151 120 145 156 145 133 136 142 141 151 137 139 141 146 148 138 134 134 142
3 356 352 348 344 344 334 334 335 329 322 310 265 224 198 188 231 237 191 174 187 197 222 208 201 199 199 193 199 192 187 182 183 188 179 181 183 184 181 183 193 154 171 133 136 148 159 143 129 130 130 138 139 149 152 161 158 153 145 148 155 156
2 358 358 353 348 342 342 332 336 337 331 316 284 220 198 213 203 212 194 182 186 191 207 212 201 199 199 200 191 203 188 185 182 195 185 186 187 180 182 188 187 176 146 147 165 160 154 144 138 136 139 145 149 168 152 178 164 162 160 166 168 169
4 357 2 356 345 340 340 333 325 329 325 317 316 249 206 224 216 209 193 184 185 198 194 209 210 207 206 204 195 193 184 187 188 185 193 190 185 175 177 189 181 175 169 170 166 160 157 150 167 160 153 151 162 175 166 194 175 180 170 172 181 172
2 359 360 359 348 343 335 331 329 327 327 327 337 322 244 213 184 171 191 194 192 190 198 219 210 205 215 215 203 198 198 189 185 178 192 189 180 170 178 189 188 187 181 162 158 162 163 161 176 173 156 157 196 172 171 199 209 189 183 179 178 189
359 359 0 359 351 340 336 330 334 331 332 354 347 23 54 110 103 140 145 96 63 193 193 206 202 197 205 215 212 203 196 201 196 184 191 191 186 186 183 188 192 193 186 174 170 171 177 192 180 156 172 216 176 197 158 199 195 186 188 182 182 196
356 359 1 358 355 344 342 342 342 346 346 343 10 43 53 25 121 125 110 122 126 40 222 192 195 199 201 209 215 210 203 202 197 212 197 188 187 194 183 191 194 192 189 188 179 169 181 192 200 165 163 103 229 217 192 164 190 166 176 187 196 197
356 355 4 359 356 351 349 347 347 352 356 350 1 2 342 48 350 46 143 141 131 126 199 211 198 190 184 195 208 217 195 244 221 213 190 200 193 194 193 197 195 197 194 198 190 175 179 192 215 198 169 215 318 132 292 147 185 156 169 202 184 205
355 352 3 358 356 357 351 350 350 348 2 355 341 340 2 114 136 9 110 136 131 123 171 194 176 165 130 123 122 113 206 231 238 213 207 194 189 191 195 199 195 195 202 195 184 185 188 173 212 224 203 237 184 199 163 245 190 134 179 169 195 189
353 352 1 357 355 0 353 353 346 348 357 358 352 339 316 199 87 38 359 155 140 131 124 257 152 120 108 127 125 135 185 164 238 263 183 200 184 185 193 200 200 197 206 202 185 196 185 183 178 206 227 220 218 233 222 226 280 268 153 176 169 222
350 351 357 354 353 357 354 351 352 347 345 357 0 352 335 342 146 103 288 337 147 140 135 167 187 114 126 136 112 155 151 112 160 256 260 208 191 181 190 188 180 196 202 203 188 198 166 182 184 193 196 234 263 243 224 243 237 242 261 164 197 221
347 347 354 350 349 351 351 352 352 354 344 352 354 356 359 355 88 179 170 322 157 185 163 144 141 130 136 156 178 200 169 141 189 226 245 212 184 165 171 171 172 187 196 197 187 215 188 186 198 192 210 205 205 228 238 233 225 247 249 265 255 180
345 347 345 345 346 345 344 351 351 348 353 347 352 356 358 8 351 191 150 234 242 203 195 129 119 118 140 175 189 201 208 199 233 232 270 220 173 136 165 169 164 175 194 203 211 208 208 199 196 210 213 201 212 217 219 231 232 237 247 254 237 268
342 345 341 339 342 341 341 344 344 344 346 349 350 354 7 2 354 356 117 164 24 186 170 131 124 130 151 175 183 189 200 216 237 238 265 253 184 178 182 178 170 179 189 206 211 217 220 228 218 222 214 225 228 230 224 228 242 238 250 244 264 271
339 341 341 339 336 338 338 339 339 340 343 342 345 350 359 9 1 1 349 44 89 12 63 98 129 130 155 165 183 170 181 210 230 230 252 259 194 168 164 168 175 187 192 198 210 212 217 217 225 230 223 220 230 234 235 238 242 257 238 257 266 254
343 347 349 341 336 336 336 338 338 336 336 332 338 344 352 4 11 2 356 6 44 69 144 214 153 141 139 153 132 133 175 216 219 234 240 252 222 171 167 181 175 191 198 199 208 212 222 224 225 230 236 232 223 231 244 248 243 242 249 248 244 251
344 347 343 341 336 337 337 336 337 337 333 330 328 329 334 356 13 4 4 351 11 56 67 56 346 68 111 108 117 141 125 234 242 228 235 244 227 190 174 193 183 191 199 200 201 207 219 224 225 222 227 232 226 232 242 237 238 243 247 244 250 255
339 340 340 339 336 334 332 330 330 332 332 330 316 315 312 330 336 354 2 5 7 3 8 60 2 48 76 78 120 142 146 205 233 240 250 245 232 211 189 198 199 196 204 197 204 209 214 217 220 225 227 228 231 232 226 233 239 237 242 248 249 253
340 338 339 337 332 327 326 328 328 326 326 324 315 308 308 311 315 319 308 359 27 335 345 5 21 15 32 46 24 130 189 217 230 240 233 239 235 220 205 209 210 202 206 203 209 210 214 220 219 210 229 238 242 233 232 231 236 241 238 242 247 250